Starlink 5663

operational
NORAD ID: 55347 Int'l Des: 2023-013 Owner: SPXS Country: US Constellation: starlink
LEOCIRCULAR

Über Starlink 5663

Beschreibung wird geladen...

Live-Position

3D-Globus wird geladen...

Nächste Überflüge

Höhenverlauf

Altitude vs Time

uPlot chart will show altitude changes over time

Zweizeiliger Elementsatz

1 55347U 23013S 25353.47048049 .00000386 00000-0 43623-4 0 9996
2 55347 43.0062 16.1091 0001182 268.0285 92.0422 15.02530531159641
Epoch: 19. Dez. 2025 • Age: 13 hours

Aktueller Status

Höhe 561.9 km
Geschwindigkeit 7.59 km/s
Subsatellitenpunkt 38.11°N, 24.04°W
Startdatum 26. Jan. 2023
Alter 2.8 years
Typ internet

Technische Details

Klassifizierung Payload
Masse 305.00 kg
Trockenmasse 290.00 kg
Gesamtmasse 305.00 kg
Länge 0.20 m
Durchmesser 2.80 m
Spannweite 9.00 m
Form Box + pan
Hersteller SPXS
Bus-Typ Starlink
Phasenstatus In Orbit
Besitzer/Staat SPXS/US

Große Konstellationen

Loading constellations...